Location: Bu?enice
(49.5526°N, 15.0662°E)
Time: 19:37:06
(UTC+00:00)

Daily predictions for brighter satellites

Satellite Brightness Start Highest point End
(mag) Time Altitude Azimuth Time Altitude Azimuth Time Altitude Azimuth
Meteor 1-14 Rocket 4.2 17:19:26 10° S 17:24:55 67° E 17:30:26 10° NNE
Okean O Rocket 3.8 17:21:21 10° SSW 17:25:15 32° W 17:29:11 10° NNW
Cosmos 1500 3.1 17:23:09 10° S 17:26:51 67° E 17:30:35 10° NNE
Cosmos 2360 Rocket 2.2 17:21:19 10° SSW 17:26:58 78° ESE 17:32:40 10° NNE
SJ-11-01 4.3 17:23:19 10° SSE 17:27:58 67° ENE 17:32:40 10° N
USA 186 3.4 17:28:27 10° E 17:29:25 12° ENE 17:30:24 10° NE
Cosmos 1943 Rocket 4.2 17:27:25 10° N 17:29:37 12° NNE 17:31:48 10° NE
Okean 1-7 3.1 17:25:22 10° N 17:29:40 55° ENE 17:33:54 10° SSE
OBJECT-B 2.9 17:29:45 10° ENE 17:30:40 11° ENE 17:31:36 10° NE
Cosmos 2341 Rocket 4.2 17:24:51 10° SSE 17:30:54 52° E 17:36:56 10° NNE
PSLV R/B 4.2 17:27:35 10° NNE 17:31:32 46° E 17:35:26 10° S
Cosmos 1844 4.0 17:26:10 10° NNW 17:31:58 78° WSW 17:37:39 10° SSE
YAOGAN 1 2.5 17:29:06 10° SSE 17:33:25 78° ENE 17:37:46 10° NNW
Cosmos 2333 4.4 17:28:04 10° S 17:33:32 51° ESE 17:39:04 10° NE
Cosmos 2278 Rocket 3.0 17:29:27 10° NNW 17:34:36 34° NE 17:39:43 10° ESE
Cosmos 2237 Rocket 3.8 17:32:29 10° ESE 17:34:56 13° E 17:37:24 10° ENE
SJ 16-02 2.3 17:33:55 10° N 17:37:49 29° ENE 17:41:42 10° ESE
SAR-Lupe-4 4.1 17:34:36 10° NNE 17:37:58 37° E 17:41:19 10° SSE
FALCON 9 DEB 2.9 17:35:23 10° WNW 17:38:34 76° NNE 17:41:32 12° ESE
Meteor 1-5 Rocket 4.2 17:35:50 10° S 17:41:09 61° E 17:46:42 10° NNE
Cosmos 2218 Rocket 4.4 17:35:49 10° SSE 17:41:46 42° E 17:47:42 10° NNE
COSMO-SKYMED 1 3.3 17:38:39 10° N 17:42:56 58° WNW 17:47:12 10° SSW
Okean 3 4.0 17:39:09 10° N 17:43:11 39° ENE 17:47:12 10° SE
SL-4 R/B 2.5 17:40:09 10° WNW 17:43:35 45° SSW 17:46:53 10° SE
Cosmos 1536 3.7 17:41:37 10° SSE 17:44:57 26° E 17:48:19 10° NNE
SeaSat 1 3.4 17:41:21 10° NE 17:45:29 26° ESE 17:49:35 10° SSE
FALCON 9 DEB 2.9 17:43:19 10° WNW 17:46:31 89° NNE 17:49:12 14° ESE
Cosmos 2242 Rocket 3.7 17:42:36 10° N 17:47:07 85° W 17:51:33 10° S
Gbstr 26 Del rocket 3.4 17:46:43 10° WNW 17:51:09 73° N 17:55:46 14° E
Cosmos 2333 Rocket 2.3 17:48:48 10° S 17:54:22 59° ESE 18:00:01 10° NE
USA 238 DEB 4.4 17:49:31 10° S 17:54:55 28° ESE 18:00:31 10° ENE
Abrixas rocket 2.7 17:52:41 10° W 17:54:58 33° SSW 17:56:40 15° SE
USA 238 4.4 17:49:39 10° SSE 17:55:02 28° ESE 18:00:37 10° ENE
Resurs 01 Rocket 3.4 17:54:08 12° ENE 17:55:18 14° NE 17:57:29 10° NNE
Meteor 2-4 Rocket 4.3 17:52:13 10° NNW 17:58:03 66° W 18:03:55 10° S
SAR-Lupe-1 4.0 17:54:51 10° NNE 17:58:27 66° ESE 18:02:00 10° S
Helios 1A Rocket 2.8 17:56:04 10° SSE 18:00:07 87° ENE 18:04:10 10° NNW
Cosmos 2322 Rocket 3.6 17:55:30 10° WSW 18:00:46 40° NW 18:06:06 10° NNE
Lacrosse 4 Rocket 1.5 17:57:18 10° SSW 18:01:41 66° ESE 18:06:10 10° NE
GP-B 3.1 17:57:50 10° S 18:02:16 87° E 18:06:45 10° N
ARGOS 3.4 17:58:54 10° S 18:04:20 77° WSW 18:09:48 10° NNW
ERBS 4.2 18:04:32 10° NW 18:07:12 22° N 18:09:27 12° NE
Cosmos 192 4.3 18:03:13 10° SSW 18:08:07 81° ESE 18:13:04 10° NNE
Cosmos 1869 Rocket 3.5 18:04:36 10° S 18:08:57 68° E 18:13:21 10° NNE
CZ-4B R/B 3.8 18:06:53 10° NNW 18:09:28 24° WNW 18:12:03 10° SW
CZ-4 R/B 3.0 18:06:15 10° SSW 18:09:51 36° W 18:13:33 10° NNW
Cosmos 2219 Rocket 2.1 18:05:19 10° SSW 18:10:51 69° ESE 18:16:28 10° NNE
ERS-2 2.2 18:10:27 10° NNE 18:14:07 79° WNW 18:17:45 10° SSW
CZ-2C R/B 2.6 18:09:01 10° NNE 18:14:30 74° ESE 18:19:48 10° S
FALCON 9 DEB 3.3 18:12:02 10° WNW 18:15:09 57° SSW 18:16:47 24° SE
Cosmos 1689 Rocket 2.7 18:12:52 10° N 18:15:43 57° WNW 18:18:34 10° SSW
Cosmos 1238 Rocket 2.9 18:13:21 10° SSE 18:17:09 42° E 18:20:24 10° NNE
Cosmos 1378 3.0 18:14:41 10° N 18:18:26 71° E 18:22:08 10° SSE
Cosmos 1980 4.4 18:14:17 10° SSE 18:19:05 30° ESE 18:23:55 10° NE
SL-08 RB Rocket 3.9 18:14:44 10° S 18:19:15 73° WSW 18:23:53 10° NNW
USA 305 2.9 18:16:11 10° WNW 18:20:28 71° NNE 18:22:40 27° E
NOSS 3-2 (A) 3.6 18:18:08 10° SSW 18:23:29 46° ESE 18:29:35 10° NE
CREW DRAGON DEMO-1 DEB 3.0 18:21:07 10° SW 18:23:48 41° SSE 18:23:59 41° SE
FALCON 9 DEB 3.3 18:21:28 10° WNW 18:24:38 57° SSW 18:25:51 32° SE
NOSS 3-3 (A) 4.5 18:17:46 10° NW 18:25:10 81° NE 18:31:56 17° SE
NOSS 3-3 (C) 4.5 18:17:53 10° NW 18:25:16 80° NE 18:32:00 17° SE
COSMOS 2428 2.6 18:19:57 10° SSW 18:25:36 74° ESE 18:31:19 10° NNE
Cosmos 1733 Rocket 3.6 18:22:20 10° SSE 18:26:17 35° E 18:30:17 10° NNE
SL-16 R/B 4.4 18:24:55 10° W 18:29:30 25° NW 18:34:08 10° NNE
Meteor 2-20 4.4 18:27:57 10° N 18:34:04 73° ENE 18:40:12 10° SSE
USA 307 2.8 18:29:56 10° WNW 18:34:15 78° NNE 18:35:52 37° ESE
SL-8 Rocket 4.2 18:28:13 10° SSW 18:34:25 74° W 18:40:38 10° N
Cosmos 2369 Rocket 3.9 18:31:02 10° N 18:34:30 16° NNE 18:36:12 14° NE
CENTAUR R/B 2.9 18:29:48 10° S 18:35:13 39° ESE 18:41:34 10° NE
USA 306 2.8 18:31:12 10° WNW 18:35:31 81° NNE 18:37:06 38° ESE
Cosmos 1066 Rocket 4.4 18:31:02 10° NNW 18:36:49 79° W 18:42:40 10° S
NOSS 0 Rocket 4.0 18:31:06 10° S 18:37:00 50° ESE 18:42:55 10° NE
Cosmos 1898 Rocket 3.7 18:31:57 10° NNW 18:37:02 49° ENE 18:39:11 31° ESE
ATLAS CENTAUR R/B 3.4 18:34:27 10° W 18:37:22 22° NNW 18:40:21 10° NNE
Cosmos 1743 2.8 18:37:06 10° S 18:40:52 53° E 18:44:41 10° NNE
Cosmos 1666 4.5 18:39:28 10° SW 18:42:52 33° WNW 18:46:19 10° N
USA 308 2.8 18:40:45 10° WNW 18:45:03 86° NNE 18:46:15 47° ESE
Cosmos 2322 4.4 18:41:02 10° SW 18:46:40 57° NW 18:52:20 10° NNE
Meteor 1-23 Rocket 4.2 18:41:37 10° NNW 18:47:15 83° W 18:52:56 10° S
BREEZE-M DEB (TANK) 3.9 18:48:38 10° SW 18:50:06 31° SSW 18:50:06 31° SSW
ASTEX 1 3.3 18:46:05 10° N 18:51:00 85° E 18:55:53 10° S
Cosmos 2366 rocket 4.4 18:46:24 10° SSW 18:52:42 68° WNW 18:59:04 10° N
Cosmos 1674 Rocket 3.5 18:50:21 10° N 18:54:38 60° ENE 18:55:15 54° ESE
SJ-6B 3.1 18:52:44 20° S 18:55:29 70° WSW 18:59:30 10° NNW
Cosmos 990 Rocket 3.9 18:52:22 10° NNW 18:57:35 81° ENE 18:59:41 37° SSE
Cosmos 2221 Rocket 3.9 18:54:13 10° NNW 18:58:37 68° W 19:02:10 16° S
Ariane Rocket 2.9 18:55:34 22° SSE 18:58:59 89° WSW 19:04:07 10° NNW
USA 186 3.1 18:59:36 27° WSW 18:59:55 28° W 19:02:17 10° NNW
ARIANE 5 R/B 4.3 19:01:45 20° NE 19:01:45 20° NE 19:04:04 10° N
Cosmos 2297 4.2 18:56:16 10° NNW 19:01:43 41° NE 19:02:40 38° ENE
OBJECT-B 1.2 19:02:09 56° SW 19:02:27 59° W 19:05:40 10° NNW
Cosmos 1763 Rocket 3.6 18:57:46 10° S 19:02:53 50° ESE 19:08:01 10° NNE
NOSS 3-2 (C) 3.4 18:59:42 10° SSW 19:05:10 53° ESE 19:08:11 29° ENE
Okean 2 4.2 19:01:55 10° N 19:04:49 36° NNE 19:04:49 36° NNE
Cosmos 1378 Rocket 3.4 19:04:40 10° N 19:09:08 72° E 19:09:21 70° ESE
Cosmos 2360 Rocket 4.3 19:07:00 10° W 19:11:36 25° NW 19:16:16 10° NNE
Cosmos 468 Rocket 3.9 19:09:19 10° S 19:14:33 65° ESE 19:19:48 10° NNE
Cosmos 1943 Rocket 2.9 19:09:54 10° NNW 19:15:09 37° NE 19:15:25 37° NE
SJ 16-02 2.8 19:12:25 10° NW 19:16:27 36° WSW 19:19:19 17° SSW
Cosmos 1821 Rocket 3.8 19:10:38 10° S 19:16:51 86° E 19:23:02 10° N
Cosmos 2237 Rocket 2.0 19:12:19 10° SSW 19:17:59 75° ESE 19:23:43 10° NNE
Cosmos 858 Rocket 4.3 19:13:03 10° NNW 19:18:16 73° ENE 19:18:47 66° ESE
Cosmos 1544 3.9 19:15:11 10° SSW 19:18:44 50° WNW 19:22:20 10° N
Cosmos 2278 Rocket 2.9 19:13:26 10° NW 19:18:56 51° WSW 19:22:10 24° S
Meteor 1-21 4.1 19:16:31 10° N 19:22:14 70° ENE 19:23:05 60° SE
USA 81 4.1 19:17:18 10° S 19:22:34 79° W 19:27:52 10° N
SeaSat 1 3.0 19:18:25 10° NNE 19:23:16 57° NW 19:28:05 10° SW
SPOT 3 Rocket 3.4 19:24:25 67° SE 19:25:05 81° ENE 19:30:21 10° NNW
Cosmos 2239 Rocket 4.4 19:20:15 10° S 19:26:33 86° E 19:32:50 10° N
Cosmos 1934 Rocket 3.8 19:30:07 62° SE 19:30:40 66° E 19:36:47 10° NNE
Resurs 01 Rocket 1.8 19:31:41 68° NNW 19:31:41 68° NNW 19:35:35 10° NNW
SME Rocket 4.4 19:23:41 10° NNE 19:31:19 64° WNW 19:36:19 10° SW
SPOT 1/Viking Rocket 4.0 19:33:56 47° NE 19:33:56 47° NE 19:38:06 10° N
USA 234 3.2 19:33:09 57° ESE 19:33:57 61° SE 19:40:24 10° SW
USA 245 4.4 19:35:05 59° ENE 19:35:09 59° ENE 19:41:23 10° N
Gbstr 26 Del rocket 3.8 19:33:20 10° WNW 19:38:08 55° SSW 19:38:19 54° SSW
Cosmos 2333 Rocket 4.0 19:33:59 10° WSW 19:39:01 31° NW 19:44:07 10° NNE
Cosmos 1937 Rocket 3.4 19:34:28 10° NNW 19:39:39 76° WSW 19:39:49 75° SW
Cosmos 2123 Rocket 3.9 19:33:31 10° N 19:39:49 89° E 19:41:02 61° S
Lacrosse 4 Rocket 3.8 19:37:10 10° W 19:40:48 24° NW 19:44:28 10° NNE
USA 238 DEB 3.7 19:38:37 10° SW 19:45:13 76° NW 19:52:13 10° NE
USA 238 3.7 19:38:43 10° SW 19:45:20 77° NW 19:52:19 10° NE
Cosmos 2219 Rocket 4.1 19:50:36 10° WSW 19:55:20 27° NW 20:00:06 10° NNE
Terra 3.8 20:00:53 19° NNE 20:00:53 19° NNE 20:02:33 10° N
ERS-1 Rocket 4.3 20:03:06 30° N 20:03:06 30° N 20:05:50 10° N
Cosmos 1980 4.3 19:57:23 10° SW 20:02:54 53° NW 20:08:27 10° NNE
Spot 2 Rocket 4.5 20:14:35 43° NNW 20:14:35 43° NNW 20:18:00 10° NNW
NOSS 3-2 (A) 4.3 20:08:38 10° WSW 20:14:19 49° NW 20:20:56 10° NE
Cosmos 1605 Rocket 4.3 20:15:57 60° NNE 20:15:57 60° NNE 20:21:03 10° N
Cosmos 2369 Rocket 3.1 20:14:12 10° NNW 20:18:00 41° N 20:18:00 41° N
CENTAUR R/B 3.1 20:19:32 10° WSW 20:25:37 58° NW 20:32:55 10° NE
USA 281 4.1 20:54:08 42° N 20:54:08 42° N 20:58:42 10° NNW
NOSS 3-2 (C) 4.4 20:50:35 10° WSW 21:02:26 11° NE 21:02:48 10° NE
Cosmos 1943 Rocket 3.7 20:53:39 10° NW 20:56:58 32° WNW 20:56:58 32° WNW
Cosmos 2237 Rocket 4.1 20:57:56 10° W 21:02:40 26° NW 21:07:25 10° NNE
CENTAUR R/B 4.4 22:12:02 10° WNW 22:17:54 30° N 22:24:39 10° NE
ATLAS 3B R/B 4.5 23:35:00 25° N 23:35:00 25° N 23:38:46 10° NE
